Starlink 32411

operational
NORAD ID: 61547 Int'l Des: 2024-184 Owner: SPXS Country: US Constellation: starlink
LEOCIRCULAR

Über Starlink 32411

Beschreibung wird geladen...

Live-Position

3D-Globus wird geladen...

Nächste Überflüge

Höhenverlauf

Altitude vs Time

uPlot chart will show altitude changes over time

Zweizeiliger Elementsatz

1 61547U 24184R 25259.87009430 -.00001209 00000-0 -28727-4 0 9990
2 61547 53.1603 101.3696 0001253 94.5030 265.6114 15.30182319 51892
Epoch: 16. Sept. 2025 • Age: 29 hours

Aktueller Status

Höhe 480.0 km
Geschwindigkeit 7.63 km/s
Subsatellitenpunkt 48.72°N, 135.69°E
Startdatum 15. Okt. 2024
Alter 0.9 years
Typ internet

Technische Details

Klassifizierung Payload
Masse 730.00 kg
Trockenmasse 700.00 kg
Gesamtmasse 730.00 kg
Länge 0.30 m
Durchmesser 4.10 m
Spannweite 29.00 m
Form Box + pan
Hersteller SPXS
Bus-Typ Starlink V2M
Phasenstatus In Orbit
Besitzer/Staat SPXS/US

Große Konstellationen

Loading constellations...